Location: Madrid
(40.4000°N, 3.6830°W)
Time: 08:45:27
(UTC+02:00)

ISS - Pass Details

Date: 25 July 2017
Orbit: 400 x 408 km, 51.6° (Epoch: 21 July)

Event Time Altitude Azimuth Distance (km) Brightness Sun altitude
Rises 23:09:50 0° 253° (WSW) 2,303 0.4 -15.4°
Reaches altitude 10° 23:12:00 10° 262° (W) 1,446 -0.5 -15.7°
Maximum altitude 23:15:01 35° 331° (NNW) 662 -2.1 -16.1°
Drops below altitude 10° 23:18:03 10° 39° (NE) 1,452 -1.0 -16.5°
Sets 23:20:15 0° 49° (NE) 2,313 0.0 -16.8°
